Longville, MN

6:16 PM CST on December 03, 2016 (GMT -0600)
Longville Municipal

Weather History for KXVG - January, 2013

Change the Weather History Date:

Wednesday, January 9, 2013

  Actual Average (KPWC) Record (KPWC)
Temperature  
Mean Temperature 26 °F -  
Max Temperature 32 °F 17 °F 46 °F (2012)
Min Temperature 21 °F 1 °F -27 °F (1999)
Degree Days  
Heating Degree Days 38    
Moisture  
Dew Point 19 °F    
Average Humidity 74    
Maximum Humidity 86    
Minimum Humidity 64    
Precipitation  
Precipitation 0.00 in - - ()
Sea Level Pressure  
Sea Level Pressure 30.04 in    
Wind  
Wind Speed 10 mph (WSW)    
Max Wind Speed 21 mph    
Max Gust Speed 30 mph    
Visibility 10 miles    
Events Snow    
Averages and records for this station are not official NWS values.
T = Trace of Precipitation, MM = Missing Value Source: NWS Daily Summary

Daily Weather History Graph

Daily Weather History Graph

Search for Another Location

Airport or City:

Trip Planner

Search our weather history database for the weather conditions in past years. The results will help you decide how hot, cold, wet, or windy it might be!

Date:

Astronomy

Jan. 09, 2013 Rise Set
Actual Time 8:01 AM CST 4:47 PM CST
Civil Twilight 7:26 AM CST 5:22 PM CST
Nautical Twilight 6:48 AM CST 6:00 PM CST
Astronomical Twilight 6:11 AM CST 6:37 PM CST
Moon 5:41 AM CST (1/9) 2:49 PM CST (1/9)
Length of Visible Light 9h 55m
Length of Day
8h 46m
Waning Crescent, 6% of the Moon is Illuminated
Jan 9
Waning Crescent
Jan 11
New
Jan 18
First Quarter
Jan 26
Full
Feb 3
Last Quarter

Hourly Weather History & Observations

Time (CST) Temp. Windchill Dew Point Humidity Pressure Visibility Wind Dir Wind Speed Gust Speed Precip Events Conditions
12:16 AM 28.4 °F 20.4 °F 24.8 °F 86% 29.71 in 10.0 mi SW 8.1 mph - N/A   Scattered Clouds
12:56 AM 28.4 °F 20.4 °F 24.8 °F 86% 29.71 in 10.0 mi SW 8.1 mph - N/A   Scattered Clouds
1:16 AM 30.2 °F 23.4 °F 24.8 °F 80% 29.71 in 10.0 mi SW 6.9 mph - N/A   Mostly Cloudy
1:36 AM 30.2 °F 21.3 °F 24.8 °F 80% 29.71 in 10.0 mi WSW 10.4 mph 18.4 mph N/A   Mostly Cloudy
1:56 AM 30.2 °F 20.2 °F 24.8 °F 80% 29.71 in 10.0 mi WSW 12.7 mph 18.4 mph N/A   Scattered Clouds
2:16 AM 32.0 °F 23.6 °F 24.8 °F 75% 29.71 in 10.0 mi WSW 10.4 mph 19.6 mph N/A   Overcast
2:36 AM 32.0 °F 22.5 °F 24.8 °F 75% 29.72 in 10.0 mi WSW 12.7 mph 24.2 mph N/A   Overcast
2:56 AM 30.2 °F 19.8 °F 26.6 °F 86% 29.73 in 10.0 mi West 13.8 mph 28.8 mph N/A   Overcast
3:16 AM 30.2 °F 18.9 °F 26.6 °F 86% 29.74 in 7.0 mi WSW 16.1 mph 21.9 mph N/A Snow Light Snow
3:36 AM 30.2 °F 18.1 °F 23.0 °F 75% 29.75 in 10.0 mi West 18.4 mph 28.8 mph N/A   Overcast
3:56 AM 30.2 °F 19.8 °F 23.0 °F 75% 29.76 in 10.0 mi WSW 13.8 mph 26.5 mph N/A   Mostly Cloudy
4:16 AM 28.4 °F 15.1 °F 21.2 °F 74% 29.77 in 10.0 mi West 20.7 mph 29.9 mph N/A   Overcast
4:36 AM 28.4 °F 15.8 °F 21.2 °F 74% 29.78 in 10.0 mi West 18.4 mph 26.5 mph N/A   Overcast
4:56 AM 28.4 °F 17.0 °F 21.2 °F 74% 29.80 in 10.0 mi West 15.0 mph 28.8 mph N/A   Overcast
5:16 AM 28.4 °F 18.0 °F 21.2 °F 74% 29.82 in 10.0 mi West 12.7 mph 19.6 mph N/A   Overcast
5:36 AM 28.4 °F 17.5 °F 21.2 °F 74% 29.84 in 10.0 mi West 13.8 mph 26.5 mph N/A   Overcast
5:56 AM 28.4 °F 17.0 °F 21.2 °F 74% 29.85 in 10.0 mi West 15.0 mph 28.8 mph N/A   Overcast
6:16 AM 26.6 °F 14.3 °F 21.2 °F 80% 29.88 in 10.0 mi West 16.1 mph 28.8 mph N/A   Overcast
6:36 AM 26.6 °F 15.2 °F 19.4 °F 74% 29.90 in 10.0 mi West 13.8 mph 29.9 mph N/A   Overcast
6:56 AM 26.6 °F 13.8 °F 19.4 °F 74% 29.92 in 10.0 mi West 17.3 mph 27.6 mph N/A   Overcast
7:16 AM 26.6 °F 14.3 °F 19.4 °F 74% 29.94 in 10.0 mi West 16.1 mph 20.7 mph N/A   Overcast
7:36 AM 26.6 °F 16.8 °F 19.4 °F 74% 29.96 in 10.0 mi WNW 10.4 mph 19.6 mph N/A   Overcast
7:56 AM 26.6 °F 16.2 °F 19.4 °F 74% 29.98 in 10.0 mi WNW 11.5 mph 20.7 mph N/A   Overcast
8:16 AM 26.6 °F 15.7 °F 19.4 °F 74% 30.01 in 10.0 mi WNW 12.7 mph 18.4 mph N/A   Overcast
8:36 AM 24.8 °F 12.4 °F 19.4 °F 80% 30.02 in 10.0 mi WNW 15.0 mph 26.5 mph N/A   Overcast
8:56 AM 24.8 °F 12.4 °F 17.6 °F 74% 30.03 in 10.0 mi West 15.0 mph 20.7 mph N/A   Overcast
9:16 AM 24.8 °F 12.4 °F 17.6 °F 74% 30.05 in 10.0 mi West 15.0 mph 24.2 mph N/A   Overcast
9:36 AM 24.8 °F 12.4 °F 17.6 °F 74% 30.05 in 10.0 mi West 15.0 mph 25.3 mph N/A   Overcast
9:56 AM 24.8 °F 12.9 °F 17.6 °F 74% 30.07 in 10.0 mi West 13.8 mph 21.9 mph N/A   Overcast
10:16 AM 24.8 °F 13.4 °F 17.6 °F 74% 30.08 in 10.0 mi West 12.7 mph 20.7 mph N/A   Overcast
10:37 AM 24.8 °F 12.4 °F 17.6 °F 74% 30.08 in 10.0 mi West 15.0 mph 19.6 mph N/A   Mostly Cloudy
11:16 AM 26.6 °F 17.5 °F 17.6 °F 69% 30.09 in 10.0 mi West 9.2 mph - N/A   Clear
11:36 AM 26.6 °F 19.1 °F 17.6 °F 69% 30.10 in 10.0 mi WNW 6.9 mph - N/A   Clear
11:56 AM 26.6 °F 18.2 °F 17.6 °F 69% 30.10 in 10.0 mi WNW 8.1 mph - N/A   Clear
12:16 PM 26.6 °F 15.7 °F 17.6 °F 69% 30.10 in 10.0 mi WNW 12.7 mph 16.1 mph N/A   Clear
12:36 PM 26.6 °F 15.2 °F 17.6 °F 69% 30.10 in 10.0 mi West 13.8 mph 18.4 mph N/A   Clear
12:57 PM 26.6 °F 15.7 °F 17.6 °F 69% 30.12 in 10.0 mi WNW 12.7 mph - N/A   Clear
1:16 PM 26.6 °F 17.5 °F 17.6 °F 69% 30.13 in 10.0 mi WNW 9.2 mph - N/A   Clear
1:36 PM 26.6 °F 19.1 °F 17.6 °F 69% 30.15 in 10.0 mi WNW 6.9 mph - N/A   Clear
1:56 PM 26.6 °F 19.1 °F 17.6 °F 69% 30.16 in 10.0 mi NW 6.9 mph - N/A   Clear
2:16 PM 28.4 °F 24.6 °F 17.6 °F 64% 30.16 in 10.0 mi WNW 3.5 mph - N/A   Clear
2:36 PM 28.4 °F 23.3 °F 17.6 °F 64% 30.18 in 10.0 mi SSW 4.6 mph - N/A   Clear
2:56 PM 28.4 °F 21.2 °F 17.6 °F 64% 30.20 in 10.0 mi SW 6.9 mph - N/A   Clear
3:16 PM 28.4 °F 20.4 °F 17.6 °F 64% 30.21 in 10.0 mi SW 8.1 mph - N/A   Clear
3:36 PM 26.6 °F 19.1 °F 17.6 °F 69% 30.22 in 10.0 mi SW 6.9 mph - N/A   Clear
3:56 PM 26.6 °F 20.0 °F 17.6 °F 69% 30.22 in 10.0 mi SW 5.8 mph - N/A   Clear
4:16 PM 26.6 °F - 17.6 °F 69% 30.23 in 10.0 mi Calm Calm - N/A   Clear
4:36 PM 26.6 °F 20.0 °F 17.6 °F 69% 30.24 in 10.0 mi SSW 5.8 mph - N/A   Clear
4:56 PM 26.6 °F 21.2 °F 17.6 °F 69% 30.24 in 10.0 mi SSW 4.6 mph - N/A   Mostly Cloudy
5:16 PM 26.6 °F 21.2 °F 17.6 °F 69% 30.24 in 10.0 mi SSW 4.6 mph - N/A   Overcast
5:36 PM 26.6 °F 19.1 °F 17.6 °F 69% 30.24 in 10.0 mi SSW 6.9 mph - N/A   Overcast
5:56 PM 26.6 °F 22.6 °F 17.6 °F 69% 30.23 in 10.0 mi South 3.5 mph - N/A   Overcast
6:16 PM 26.6 °F - 17.6 °F 69% 30.21 in 10.0 mi Calm Calm - N/A   Overcast
6:36 PM 26.6 °F - 17.6 °F 69% 30.21 in 10.0 mi Calm Calm - N/A   Overcast
6:56 PM 26.6 °F - 17.6 °F 69% 30.20 in 10.0 mi Calm Calm - N/A   Overcast
7:16 PM 26.6 °F 18.2 °F 17.6 °F 69% 30.21 in 10.0 mi South 8.1 mph - N/A   Mostly Cloudy
7:36 PM 24.8 °F 16.9 °F 17.6 °F 74% 30.20 in 10.0 mi SSE 6.9 mph - N/A   Scattered Clouds
7:56 PM 24.8 °F 17.9 °F 17.6 °F 74% 30.20 in 10.0 mi SSE 5.8 mph - N/A   Clear
8:16 PM 23.0 °F 17.0 °F 15.8 °F 74% 30.19 in 10.0 mi SE 4.6 mph - N/A   Clear
8:36 PM 21.2 °F 13.6 °F 15.8 °F 80% 30.18 in 10.0 mi SSE 5.8 mph - N/A   Clear
8:56 PM 21.2 °F 13.6 °F 15.8 °F 80% 30.18 in 10.0 mi SSE 5.8 mph - N/A   Clear
9:16 PM 23.0 °F 15.8 °F 15.8 °F 74% 30.17 in 10.0 mi SE 5.8 mph - N/A   Clear
9:36 PM 21.2 °F 14.9 °F 15.8 °F 80% 30.17 in 10.0 mi SE 4.6 mph - N/A   Clear
9:56 PM 21.2 °F 16.4 °F 15.8 °F 80% 30.17 in 10.0 mi SSE 3.5 mph - N/A   Clear
10:16 PM 21.2 °F 16.4 °F 15.8 °F 80% 30.18 in 10.0 mi SSE 3.5 mph - N/A   Clear
10:36 PM 21.2 °F 16.4 °F 15.8 °F 80% 30.18 in 10.0 mi SE 3.5 mph - N/A   Clear
10:56 PM 21.2 °F 14.9 °F 15.8 °F 80% 30.18 in 10.0 mi SE 4.6 mph - N/A   Clear
11:16 PM 21.2 °F 14.9 °F 17.6 °F 86% 30.17 in 10.0 mi SSE 4.6 mph - N/A   Clear
11:36 PM 23.0 °F 14.7 °F 17.6 °F 80% 30.16 in 10.0 mi SE 6.9 mph - N/A   Clear
11:56 PM 23.0 °F 14.7 °F 17.6 °F 80% 30.15 in 10.0 mi SE 6.9 mph - N/A   Clear